ETH3714 LEMD-EBLG

Flight info

Callsign ETH3714
Flight time 1h 46m
Altitude 34000
Route RBO N867 DGO N858 ABRIX DCT CNA DCT ADABI DCT BOKNO UN858 VANAD UN874 BAMES UT191 PODEM UN873 BAZOS DCT SOMIL DCT PERON DCT CMB DCT ROBAL UM617 CIV
Aircraft B77L/H-SDE1E2E3FGHIJ2J3J4J5M1RWXY/LB1D1

Departure

Time 2026-05-04 17:13
Airport Adolfo Suárez Madrid–Barajas Airport (LEMD)

Arrival

Time 2026-05-04 18:59
Airport Liège Airport (EBLG)
Time Latitude Longitude Altitude Speed Heading
2026-05-04 16:26 40.46033 -3.56220 1967 ft 0 kts 360°
2026-05-04 16:55 40.46004 -3.56220 1967 ft 4 kts
2026-05-04 16:55 40.45961 -3.56206 1969 ft 4 kts 286°
2026-05-04 16:56 40.45959 -3.56162 1965 ft 0 kts 270°
2026-05-04 16:57 40.45959 -3.56161 1965 ft 0 kts 270°
2026-05-04 17:00 40.45959 -3.56172 1966 ft 3 kts 270°
2026-05-04 17:00 40.45958 -3.56412 1977 ft 11 kts 269°
2026-05-04 17:01 40.45983 -3.56520 1975 ft 7 kts 345°
2026-05-04 17:01 40.46152 -3.56514 1979 ft 18 kts
2026-05-04 17:02 40.46462 -3.56490 1976 ft 25 kts
2026-05-04 17:02 40.46807 -3.56464 1981 ft 21 kts
2026-05-04 17:03 40.46935 -3.56454 1983 ft 18 kts
2026-05-04 17:03 40.47059 -3.56464 1984 ft 18 kts 347°
2026-05-04 17:03 40.47265 -3.56626 1988 ft 16 kts 322°
2026-05-04 17:04 40.47445 -3.56810 1998 ft 16 kts 322°
2026-05-04 17:04 40.47626 -3.56994 1999 ft 16 kts 322°
2026-05-04 17:05 40.47807 -3.57176 2005 ft 16 kts 322°
2026-05-04 17:05 40.47986 -3.57359 2005 ft 16 kts 322°
2026-05-04 17:06 40.48166 -3.57543 2001 ft 16 kts 322°
2026-05-04 17:06 40.48257 -3.57635 1998 ft 16 kts 322°
2026-05-04 17:07 40.48443 -3.57811 1997 ft 16 kts 330°
2026-05-04 17:07 40.48506 -3.57855 1998 ft 14 kts 332°
2026-05-04 17:07 40.48601 -3.57918 2002 ft 11 kts 339°
2026-05-04 17:07 40.48676 -3.57926 2003 ft 11 kts 360°
2026-05-04 17:08 40.48753 -3.57926 2002 ft 11 kts 359°
2026-05-04 17:08 40.48858 -3.57862 2001 ft 11 kts 89°
2026-05-04 17:08 40.48858 -3.57749 1997 ft 14 kts 90°
2026-05-04 17:09 40.48858 -3.57616 1995 ft 15 kts 89°
2026-05-04 17:09 40.48860 -3.57471 1992 ft 17 kts 89°
2026-05-04 17:09 40.48859 -3.57329 1990 ft 13 kts 90°
2026-05-04 17:10 40.48920 -3.57227 1988 ft 8 kts
2026-05-04 17:10 40.49069 -3.57312 1991 ft 8 kts 313°
2026-05-04 17:11 40.49108 -3.57366 1991 ft 8 kts 314°
2026-05-04 17:11 40.49149 -3.57419 1989 ft 8 kts 315°
2026-05-04 17:11 40.49232 -3.57451 1988 ft 0 kts 360°
2026-05-04 17:12 40.49911 -3.57456 1993 ft 119 kts 360°
2026-05-04 17:13 40.53582 -3.57417 3114 ft 189 kts 353°
2026-05-04 17:14 40.57778 -3.56459 4615 ft 233 kts 12°
2026-05-04 17:14 40.59355 -3.55865 5322 ft 239 kts 12°
2026-05-04 17:14 40.62559 -3.54692 6006 ft 241 kts 12°
2026-05-04 17:15 40.64182 -3.54124 5985 ft 240 kts
2026-05-04 17:15 40.67531 -3.53820 6009 ft 240 kts 359°
2026-05-04 17:16 40.70685 -3.52916 6061 ft 241 kts 43°
2026-05-04 17:16 40.73770 -3.47119 7253 ft 275 kts 53°
2026-05-04 17:17 40.74857 -3.45018 7841 ft 278 kts 54°
2026-05-04 17:17 40.78200 -3.38567 8006 ft 284 kts 54°
2026-05-04 17:18 40.79316 -3.36421 7998 ft 283 kts 54°
2026-05-04 17:18 40.81546 -3.32136 8015 ft 285 kts 54°
2026-05-04 17:19 40.83848 -3.27700 9289 ft 300 kts 55°
2026-05-04 17:19 40.87035 -3.24259 10441 ft 315 kts 12°
2026-05-04 17:20 40.91610 -3.23249 11300 ft 347 kts
2026-05-04 17:20 40.96444 -3.22228 13176 ft 358 kts
2026-05-04 17:20 40.98922 -3.21685 14080 ft 364 kts
2026-05-04 17:21 41.03988 -3.20550 15826 ft 374 kts
2026-05-04 17:21 41.09192 -3.19385 17576 ft 384 kts
2026-05-04 17:22 41.11848 -3.18788 18367 ft 391 kts
2026-05-04 17:22 41.14545 -3.18175 19134 ft 395 kts
2026-05-04 17:23 41.22811 -3.16297 21440 ft 409 kts
2026-05-04 17:23 41.25679 -3.15645 22145 ft 415 kts
2026-05-04 17:23 41.31402 -3.14345 23649 ft 424 kts
2026-05-04 17:24 41.34326 -3.13679 24263 ft 429 kts
2026-05-04 17:24 41.43282 -3.11632 26112 ft 442 kts
2026-05-04 17:25 41.46329 -3.10935 26701 ft 446 kts
2026-05-04 17:25 41.52507 -3.09524 27970 ft 455 kts
2026-05-04 17:26 41.58812 -3.08102 29077 ft 465 kts
2026-05-04 17:26 41.68499 -3.05904 30628 ft 476 kts
2026-05-04 17:27 41.75088 -3.04402 31493 ft 484 kts
2026-05-04 17:27 41.81788 -3.02870 32255 ft 493 kts
2026-05-04 17:28 41.88583 -3.01303 33096 ft 498 kts
2026-05-04 17:29 41.98951 -2.98905 33929 ft 512 kts
2026-05-04 17:29 42.09408 -2.96478 33978 ft 503 kts
2026-05-04 17:31 42.26579 -2.92476 33983 ft 500 kts
2026-05-04 17:32 42.43745 -2.88101 33995 ft 506 kts 15°
2026-05-04 17:33 42.53395 -2.82193 34011 ft 510 kts 27°
2026-05-04 17:33 42.56481 -2.79819 34000 ft 510 kts 28°
2026-05-04 17:34 42.68776 -2.70358 34025 ft 509 kts 27°
2026-05-04 17:35 42.83193 -2.59389 34016 ft 507 kts 27°
2026-05-04 17:36 42.89345 -2.54694 34009 ft 507 kts 28°
2026-05-04 17:36 42.95464 -2.50010 34019 ft 508 kts 28°
2026-05-04 17:37 43.01677 -2.45240 34032 ft 509 kts 28°
2026-05-04 17:37 43.07820 -2.40511 34029 ft 510 kts 28°
2026-05-04 17:38 43.14001 -2.35747 34024 ft 510 kts 28°
2026-05-04 17:38 43.20184 -2.30970 34029 ft 510 kts 28°
2026-05-04 17:39 43.29456 -2.23780 34018 ft 511 kts 28°
2026-05-04 17:39 43.35643 -2.18971 34017 ft 511 kts 28°
2026-05-04 17:40 43.41829 -2.14150 34032 ft 511 kts 29°
2026-05-04 17:40 43.48015 -2.09317 34030 ft 511 kts 29°
2026-05-04 17:41 43.54195 -2.04476 34030 ft 511 kts 29°
2026-05-04 17:41 43.60381 -1.99622 34003 ft 511 kts 29°
2026-05-04 17:42 43.66557 -1.94763 34002 ft 511 kts 29°
2026-05-04 17:42 43.72725 -1.89897 33985 ft 510 kts 30°
2026-05-04 17:43 43.78881 -1.85032 34007 ft 510 kts 30°
2026-05-04 17:43 43.85036 -1.80152 34009 ft 510 kts 30°
2026-05-04 17:44 43.91184 -1.75268 34012 ft 509 kts 30°
2026-05-04 17:44 43.97332 -1.70372 34011 ft 509 kts 30°
2026-05-04 17:45 44.03437 -1.65500 33999 ft 509 kts 30°
2026-05-04 17:45 44.09612 -1.60556 34155 ft 516 kts 30°
2026-05-04 17:46 44.12723 -1.58061 34507 ft 516 kts 30°
2026-05-04 17:46 44.15830 -1.55566 34919 ft 515 kts 30°
2026-05-04 17:46 44.18925 -1.53078 35367 ft 512 kts 30°
2026-05-04 17:46 44.22012 -1.50595 35725 ft 513 kts 30°
2026-05-04 17:47 44.25098 -1.48110 36093 ft 512 kts 30°
2026-05-04 17:47 44.28176 -1.45626 36476 ft 511 kts 30°
2026-05-04 17:47 44.31250 -1.43142 36847 ft 510 kts 30°
2026-05-04 17:47 44.34320 -1.40658 37197 ft 510 kts 30°
2026-05-04 17:48 44.37390 -1.38171 37541 ft 509 kts 30°
2026-05-04 17:48 44.40453 -1.35687 37886 ft 509 kts 30°
2026-05-04 17:48 44.46605 -1.30691 37982 ft 512 kts 30°
2026-05-04 17:49 44.52745 -1.25695 37976 ft 508 kts 30°
2026-05-04 17:49 44.58845 -1.20717 37953 ft 506 kts 30°
2026-05-04 17:50 44.64920 -1.15745 37963 ft 505 kts 30°
2026-05-04 17:50 44.70949 -1.10801 37978 ft 504 kts 30°
2026-05-04 17:51 44.77012 -1.05818 37979 ft 506 kts 30°
2026-05-04 17:51 44.83093 -1.00804 37981 ft 507 kts 30°
2026-05-04 17:52 44.89199 -0.95758 37984 ft 510 kts 30°
2026-05-04 17:52 44.95326 -0.90683 37974 ft 511 kts 30°
2026-05-04 17:53 45.01468 -0.85582 37980 ft 512 kts 30°
2026-05-04 17:53 45.07620 -0.80459 37980 ft 514 kts 31°
2026-05-04 17:54 45.13779 -0.75318 37936 ft 514 kts 31°
2026-05-04 17:54 45.19937 -0.70169 37973 ft 513 kts 31°
2026-05-04 17:55 45.26089 -0.65009 37962 ft 513 kts 31°
2026-05-04 17:55 45.32231 -0.59842 37969 ft 513 kts 31°
2026-05-04 17:56 45.38374 -0.54657 37956 ft 513 kts 31°
2026-05-04 17:56 45.44501 -0.49478 37951 ft 512 kts 31°
2026-05-04 17:57 45.50583 -0.44328 37949 ft 511 kts 31°
2026-05-04 17:57 45.56685 -0.39147 37926 ft 510 kts 31°
2026-05-04 17:58 45.62777 -0.33954 37931 ft 509 kts 31°
2026-05-04 17:58 45.68830 -0.28717 37948 ft 508 kts 32°
2026-05-04 17:59 45.74772 -0.23241 37962 ft 507 kts 33°
2026-05-04 18:00 45.83657 -0.14950 37939 ft 508 kts 33°
2026-05-04 18:00 45.89582 -0.09456 37945 ft 507 kts 33°
2026-05-04 18:01 45.95510 -0.03960 37942 ft 507 kts 33°
2026-05-04 18:01 46.01435 0.01547 37932 ft 507 kts 33°
2026-05-04 18:02 46.10320 0.09842 37950 ft 508 kts 33°
2026-05-04 18:02 46.16251 0.15396 37933 ft 509 kts 33°
2026-05-04 18:03 46.22190 0.20974 37936 ft 510 kts 33°
2026-05-04 18:03 46.28137 0.26571 37938 ft 511 kts 33°
2026-05-04 18:04 46.34086 0.32188 37958 ft 511 kts 33°
2026-05-04 18:05 46.43015 0.40644 37911 ft 511 kts 33°
2026-05-04 18:05 46.48957 0.46288 37939 ft 510 kts 33°
2026-05-04 18:06 46.58328 0.53513 37953 ft 509 kts 19°
2026-05-04 18:06 46.65092 0.56260 37928 ft 508 kts 11°
2026-05-04 18:07 46.72001 0.58418 37930 ft 508 kts 11°
2026-05-04 18:07 46.78908 0.60618 37941 ft 508 kts 12°
2026-05-04 18:08 46.85798 0.62895 37939 ft 508 kts 12°
2026-05-04 18:08 46.92686 0.65190 37940 ft 508 kts 12°
2026-05-04 18:09 47.06498 0.69493 37948 ft 506 kts
2026-05-04 18:10 47.13512 0.70242 37947 ft 505 kts
2026-05-04 18:10 47.20541 0.70870 37948 ft 506 kts
2026-05-04 18:11 47.27560 0.71572 37931 ft 506 kts
2026-05-04 18:11 47.34578 0.72316 37939 ft 505 kts
2026-05-04 18:12 47.41592 0.73057 37950 ft 505 kts
2026-05-04 18:12 47.48598 0.74002 37944 ft 505 kts
2026-05-04 18:13 47.55413 0.76558 37940 ft 506 kts 18°
2026-05-04 18:14 47.65413 0.81642 37934 ft 506 kts 18°
2026-05-04 18:14 47.72094 0.84966 37921 ft 506 kts 18°
2026-05-04 18:15 47.85471 0.91579 37924 ft 507 kts 18°
2026-05-04 18:16 47.92154 0.94952 37925 ft 507 kts 18°
2026-05-04 18:16 47.98790 0.98322 37930 ft 507 kts 18°
2026-05-04 18:17 48.08798 1.03412 37923 ft 506 kts 18°
2026-05-04 18:18 48.18802 1.08518 37926 ft 506 kts 18°
2026-05-04 18:18 48.25455 1.11916 37943 ft 504 kts 18°
2026-05-04 18:19 48.35423 1.16995 37943 ft 504 kts 18°
2026-05-04 18:19 48.42058 1.20391 37940 ft 503 kts 18°
2026-05-04 18:20 48.48679 1.23791 37945 ft 503 kts 18°
2026-05-04 18:20 48.54178 1.26622 37943 ft 503 kts 18°
2026-05-04 18:21 48.61886 1.30536 37929 ft 502 kts 18°
2026-05-04 18:21 48.68516 1.33865 37966 ft 502 kts 18°
2026-05-04 18:22 48.75145 1.37212 37966 ft 502 kts 18°
2026-05-04 18:22 48.80691 1.40027 37966 ft 502 kts 18°
2026-05-04 18:23 48.87316 1.43400 37960 ft 502 kts 18°
2026-05-04 18:23 48.93939 1.46777 37976 ft 502 kts 18°
2026-05-04 18:24 49.00628 1.49496 37962 ft 500 kts
2026-05-04 18:24 49.07511 1.51019 37976 ft 500 kts
2026-05-04 18:25 49.14392 1.52538 37953 ft 499 kts
2026-05-04 18:25 49.21244 1.54188 37967 ft 497 kts 11°
2026-05-04 18:26 49.24554 1.55718 37948 ft 498 kts 22°
2026-05-04 18:26 49.27640 1.58123 37956 ft 498 kts 32°
2026-05-04 18:26 49.30431 1.61241 37943 ft 497 kts 43°
2026-05-04 18:26 49.32928 1.64883 37976 ft 496 kts 45°
2026-05-04 18:27 49.37830 1.72317 37940 ft 495 kts 45°
2026-05-04 18:27 49.42775 1.79672 37929 ft 495 kts 44°
2026-05-04 18:28 49.47779 1.87018 37959 ft 501 kts 44°
2026-05-04 18:28 49.52827 1.94452 37977 ft 503 kts 44°
2026-05-04 18:29 49.57872 2.01931 37974 ft 503 kts 44°
2026-05-04 18:29 49.62907 2.09421 37968 ft 502 kts 44°
2026-05-04 18:30 49.70418 2.20631 37960 ft 499 kts 44°
2026-05-04 18:31 49.75221 2.28335 37939 ft 497 kts 53°
2026-05-04 18:31 49.78907 2.37315 37936 ft 494 kts 65°
2026-05-04 18:32 49.81556 2.47094 37942 ft 492 kts 69°
2026-05-04 18:32 49.84093 2.56869 37938 ft 493 kts 69°
2026-05-04 18:33 49.86704 2.66695 37940 ft 493 kts 69°
2026-05-04 18:33 49.89338 2.76528 37924 ft 493 kts 66°
2026-05-04 18:33 49.91019 2.81167 37932 ft 495 kts 55°
2026-05-04 18:34 49.93224 2.85265 37946 ft 496 kts 45°
2026-05-04 18:34 49.95870 2.88818 37944 ft 497 kts 34°
2026-05-04 18:34 49.98736 2.91672 37946 ft 497 kts 31°
2026-05-04 18:35 50.04666 2.97267 37741 ft 502 kts 31°
2026-05-04 18:35 50.07659 3.00149 36984 ft 509 kts 32°
2026-05-04 18:35 50.10645 3.03088 36294 ft 507 kts 32°
2026-05-04 18:35 50.13617 3.06043 35555 ft 506 kts 33°
2026-05-04 18:36 50.16582 3.08997 34746 ft 507 kts 33°
2026-05-04 18:36 50.19521 3.12010 34117 ft 503 kts 37°
2026-05-04 18:36 50.22243 3.15397 33490 ft 498 kts 43°
2026-05-04 18:36 50.24740 3.19096 32865 ft 492 kts 47°
2026-05-04 18:37 50.26977 3.23101 32288 ft 485 kts 53°
2026-05-04 18:37 50.29060 3.27215 31743 ft 481 kts 53°
2026-05-04 18:37 50.31111 3.31309 31180 ft 476 kts 53°
2026-05-04 18:37 50.33149 3.35370 30633 ft 473 kts 53°
2026-05-04 18:38 50.35182 3.39401 30070 ft 470 kts 52°
2026-05-04 18:38 50.37209 3.43397 29455 ft 466 kts 52°
2026-05-04 18:38 50.39224 3.47355 28859 ft 461 kts 52°
2026-05-04 18:38 50.41211 3.51261 28303 ft 456 kts 52°
2026-05-04 18:39 50.43150 3.55084 27749 ft 451 kts 52°
2026-05-04 18:39 50.45091 3.58924 27216 ft 447 kts 52°
2026-05-04 18:39 50.47011 3.62717 26670 ft 440 kts 52°
2026-05-04 18:39 50.48907 3.66459 26156 ft 436 kts 52°
2026-05-04 18:40 50.50789 3.70174 25646 ft 433 kts 52°
2026-05-04 18:40 50.52652 3.73869 25136 ft 430 kts 52°
2026-05-04 18:40 50.54501 3.77541 24656 ft 426 kts 52°
2026-05-04 18:40 50.56334 3.81184 24176 ft 423 kts 53°
2026-05-04 18:41 50.57891 3.85059 23678 ft 417 kts 69°
2026-05-04 18:41 50.58712 3.89334 23177 ft 403 kts 77°
2026-05-04 18:41 50.59429 3.93594 22665 ft 402 kts 75°
2026-05-04 18:41 50.60189 3.97799 22193 ft 398 kts 74°
2026-05-04 18:42 50.60981 4.01950 21753 ft 392 kts 73°
2026-05-04 18:42 50.61778 4.06042 21293 ft 390 kts 74°
2026-05-04 18:42 50.62562 4.10110 20842 ft 387 kts 74°
2026-05-04 18:42 50.63338 4.14162 20403 ft 385 kts 74°
2026-05-04 18:43 50.64099 4.18180 19954 ft 380 kts 74°
2026-05-04 18:43 50.64852 4.22147 19526 ft 376 kts 74°
2026-05-04 18:43 50.65597 4.26073 19093 ft 373 kts 74°
2026-05-04 18:43 50.66340 4.29972 18662 ft 369 kts 74°
2026-05-04 18:44 50.67076 4.33859 18205 ft 369 kts 74°
2026-05-04 18:44 50.67570 4.36472 17885 ft 368 kts 73°
2026-05-04 18:44 50.68529 4.41577 17268 ft 365 kts 73°
2026-05-04 18:44 50.69248 4.45406 16833 ft 362 kts 73°
2026-05-04 18:45 50.69959 4.49186 16395 ft 357 kts 73°
2026-05-04 18:45 50.70660 4.52935 15981 ft 355 kts 73°
2026-05-04 18:45 50.71355 4.56671 15556 ft 354 kts 73°
2026-05-04 18:45 50.72046 4.60388 15138 ft 353 kts 73°
2026-05-04 18:46 50.72738 4.64103 14724 ft 352 kts 73°
2026-05-04 18:46 50.73420 4.67770 14559 ft 343 kts 73°
2026-05-04 18:46 50.74082 4.71344 14401 ft 336 kts 73°
2026-05-04 18:46 50.74718 4.74791 14223 ft 314 kts 73°
2026-05-04 18:47 50.75077 4.78062 14032 ft 300 kts 91°
2026-05-04 18:47 50.74782 4.81296 13557 ft 296 kts 94°
2026-05-04 18:47 50.74956 4.84520 12901 ft 298 kts 76°
2026-05-04 18:47 50.75501 4.87677 12523 ft 298 kts 72°
2026-05-04 18:48 50.76085 4.90793 12246 ft 295 kts 73°
2026-05-04 18:48 50.76623 4.93899 11847 ft 294 kts 74°
2026-05-04 18:48 50.77130 4.97065 11301 ft 300 kts 75°
2026-05-04 18:48 50.77613 5.00276 10744 ft 296 kts 76°
2026-05-04 18:49 50.78058 5.03390 10199 ft 285 kts 76°
2026-05-04 18:49 50.78486 5.06479 9679 ft 290 kts 77°
2026-05-04 18:49 50.78911 5.09614 9226 ft 292 kts 77°
2026-05-04 18:49 50.79331 5.12744 8811 ft 288 kts 77°
2026-05-04 18:50 50.79732 5.15781 8431 ft 279 kts 77°
2026-05-04 18:50 50.80126 5.18766 8095 ft 272 kts 77°
2026-05-04 18:50 50.80500 5.21629 7799 ft 263 kts 77°
2026-05-04 18:50 50.80867 5.24435 7523 ft 260 kts 77°
2026-05-04 18:51 50.81229 5.27221 7226 ft 258 kts 78°
2026-05-04 18:51 50.81587 5.29978 6946 ft 255 kts 78°
2026-05-04 18:51 50.81937 5.32678 6673 ft 255 kts 78°
2026-05-04 18:51 50.82302 5.35487 6401 ft 259 kts 78°
2026-05-04 18:52 50.82648 5.38152 6066 ft 244 kts 78°
2026-05-04 18:52 50.82982 5.40754 5799 ft 239 kts 78°
2026-05-04 18:52 50.83310 5.43307 5540 ft 234 kts 78°
2026-05-04 18:52 50.83635 5.45851 5278 ft 233 kts 78°
2026-05-04 18:53 50.83956 5.48333 5026 ft 234 kts 78°
2026-05-04 18:53 50.84066 5.50854 4743 ft 228 kts 103°
2026-05-04 18:53 50.83319 5.52955 4548 ft 214 kts 133°
2026-05-04 18:53 50.82291 5.54563 4322 ft 204 kts 134°
2026-05-04 18:54 50.81316 5.56098 4216 ft 196 kts 134°
2026-05-04 18:54 50.80334 5.57639 4140 ft 199 kts 135°
2026-05-04 18:54 50.79360 5.59161 4029 ft 194 kts 135°
2026-05-04 18:54 50.78404 5.60644 3943 ft 191 kts 134°
2026-05-04 18:55 50.77426 5.62077 3770 ft 194 kts 147°
2026-05-04 18:55 50.75057 5.61738 3408 ft 171 kts 219°
2026-05-04 18:55 50.74139 5.60554 3216 ft 172 kts 218°
2026-05-04 18:56 50.73208 5.59365 2998 ft 170 kts 221°
2026-05-04 18:56 50.72358 5.58108 2754 ft 165 kts 224°
2026-05-04 18:56 50.71558 5.56851 2528 ft 158 kts 224°
2026-05-04 18:56 50.70820 5.55674 2347 ft 147 kts 225°
2026-05-04 18:57 50.70104 5.54531 2156 ft 148 kts 224°
2026-05-04 18:57 50.69384 5.53381 1935 ft 147 kts 225°
2026-05-04 18:57 50.68671 5.52245 1743 ft 145 kts 225°
2026-05-04 18:57 50.67962 5.51112 1485 ft 145 kts 224°
2026-05-04 18:58 50.67244 5.50011 1294 ft 144 kts 224°
2026-05-04 18:58 50.66552 5.48881 1106 ft 143 kts 224°
2026-05-04 18:58 50.65853 5.47754 944 ft 144 kts 223°
2026-05-04 18:58 50.65142 5.46632 734 ft 145 kts 223°
2026-05-04 18:59 50.64447 5.45514 631 ft 137 kts 220°
2026-05-04 18:59 50.63849 5.44583 627 ft 97 kts 226°
2026-05-04 18:59 50.63529 5.44074 642 ft 27 kts 225°
2026-05-04 18:59 50.63447 5.43945 642 ft 16 kts 226°
2026-05-04 19:00 50.63413 5.43847 650 ft 10 kts 289°
2026-05-04 19:00 50.63469 5.43745 642 ft 19 kts 317°
2026-05-04 19:00 50.63547 5.43626 643 ft 12 kts 315°
2026-05-04 19:00 50.63594 5.43552 643 ft 8 kts 315°
2026-05-04 19:01 50.63629 5.43496 643 ft 6 kts 315°
2026-05-04 19:01 50.63654 5.43446 643 ft 5 kts 289°
2026-05-04 19:01 50.63633 5.43381 645 ft 9 kts 231°
2026-05-04 19:01 50.63603 5.43329 644 ft 5 kts 225°
2026-05-04 19:02 50.63590 5.43275 645 ft 6 kts 287°
2026-05-04 19:02 50.63625 5.43214 651 ft 8 kts 314°
2026-05-04 19:02 50.63650 5.43174 648 ft 2 kts 315°
2026-05-04 19:02 50.63655 5.43167 644 ft 0 kts 315°
2026-05-04 19:04 50.63658 5.43162 644 ft 1 kts 316°